Regional Weather Roundup
Issued by NWS

Home | Current Version | Previous Version | Text Only | Print | Product List | Glossary Off
Versions: 1 2 3 4 5 6 7 8 9 10 11 12 13 14 15 16 17 18 19 20 21 22 23 24 25 26 27 28 29 30 31 32 33 34 35 36 37 38 39 40 41 42 43 44 45 46 47 48 49 50

000
ASUS45 KTFX 181304
RWRMT
MONTANA HOURLY WEATHER ROUNDUP
NATIONAL WEATHER SERVICE GREAT FALLS MT
604 AM MST THU DEC 18 2014

NOTE: "FAIR" INDICATES FEW OR NO CLOUDS BELOW 12000 FEET WITH NO
SIGNIFICANT WEATHER AND/OR OBSTRUCTIONS TO VISIBILITY.

* THESE STATIONS ARE NOT UNDER NWS QUALITY CONTROL. THEY DO NOT
   REPORT WEATHER SUCH AS PRECIPITATION OR FOG.

MTZ001>007-043-181400-
WEST OF THE DIVIDE
CITY           SKY/WX    TMP DP  RH WIND       PRES   REMARKS
KALISPELL      CLOUDY    28  28 100 CALM      29.96S
MISSOULA       CLOUDY    28  27  96 CALM      30.00F
BUTTE          MOCLDY     9   7  91 CALM      29.99R
MULLAN PASS    FOG       28  27  96 SW6       29.89S VSB M1/4 WCI  21
* ANACONDA     PTCLDY    25  18  75 SE11G16    N/A   WCI  14
* ESSEX        N/A       28  27  96 N/A        N/A
* LINCOLN      N/A       18  16  92 N/A        N/A
* LOOKOUT PASS N/A       32  30  92 SE4G9      N/A
* POLSON       N/A       29  28  96 N/A        N/A
* RONAN APT    CLOUDY    30  28  92 N/A        N/A
* SEELEY LAKE  N/A       22  20  92 N/A        N/A
* THOMP F APT  CLOUDY    22  18  85 NE1        N/A
$$

MTZ008-052>055-181400-
SOUTHWEST MONTANA
CITY           SKY/WX    TMP DP  RH WIND       PRES   REMARKS
BOZEMAN        CLOUDY    16  12  84 SE8       30.02S WCI   5
DILLON         CLOUDY    21  16  81 S6        30.01R WCI  13
* W YELLOWSTON PTCLDY    13  10  88 N/A        N/A
* THREE FORKS  PTCLDY    16  -9  32 N/A        N/A
* BOULDER HILL N/A       19  13  77 S12        N/A   WCI   6
* MONIDA PASS  N/A       18  17  96 E6G12      N/A   WCI  10
* RAYNOLDS PAS N/A       10  -2  58 S5         N/A   WCI   1
* WHITEHALL    N/A       17  13  84 W7G15      N/A   WCI   7
* WISE RIVER   N/A        9   5  84 W4         N/A
$$

MTZ009>010-012-014-046-048-049-054-181400-
EAST SLOPES AND CENTRAL MONTANA
CITY           SKY/WX    TMP DP  RH WIND       PRES   REMARKS
CUT BANK       CLOUDY    32  28  85 SW18      29.84F WCI  21
GREAT FALLS    CLOUDY    34  27  76 S15       29.89S WCI  24
HELENA         MOCLDY    25  21  85 W3        29.99S
* DEARBORN     N/A       34  23  64 S12        N/A   WCI  25
* EAST GLACIER N/A       33  27  79 W12        N/A   WCI  24
* MONARCH      N/A       30  18  61 S7         N/A   WCI  23
* PENDROY      N/A       35  28  76 NW9        N/A   WCI  28
* ROGERS PASS  N/A       29  21  72 SE5G14     N/A   WCI  24
* SWEET GRASS  N/A       26  26 100 W12        N/A   WCI  15
$$

MTZ011-013-016-021-035-040-045-047-050-051-181400-
NORTH CENTRAL MONTANA
CITY           SKY/WX    TMP DP  RH WIND       PRES   REMARKS
HAVRE          FOG       18  18 100 S5        29.91F VSB 1/2  WCI  11
LEWISTOWN      PTCLDY    21  16  81 SE6       29.90S WCI  13
* N BAR RANCH  CLEAR     25  18  75 W6        29.90S WCI  18
* CHESTER      N/A       19  17  92 W2         N/A
* DENTON       N/A       26  19  75 S12        N/A   WCI  15
* GEYSER       N/A       38  23  55 SW22G27    N/A   WCI  27
* JUDITH GAP   N/A       25  19  78 S4         N/A
* LOMA         N/A       19  18  96 N/A        N/A
$$

MTZ017>020-022>027-061-062-181400-
NORTHEAST MONTANA
CITY           SKY/WX    TMP DP  RH WIND       PRES   REMARKS
GLASGOW        CLOUDY    25  21  85 E6        29.95R WCI  18
GLENDIVE       CLOUDY    25  19  78 S3        29.96F
JORDAN         CLEAR     19  18  96 CALM      29.92S
SIDNEY         CLOUDY    23  19  85 CALM      30.00F
WOLF POINT     CLOUDY    25  21  85 E5        29.97F WCI  19
* BEAVER HILL  N/A       24  22  92 SW2        N/A
* CIRCLE       N/A       25  23  92 N/A        N/A
* LINDSAY DVD  N/A       22  20  92 SE1        N/A
* NAVAJO       N/A       19  17  92 SW6        N/A   WCI  11
* SACO         N/A       24  23  96 E6         N/A   WCI  17
$$

MTZ028>042-056>058-181400-
SOUTHCENTRAL AND SOUTHEAST MONTANA
CITY           SKY/WX    TMP DP  RH WIND       PRES   REMARKS
BAKER          CLOUDY    27  27 100 CALM      29.94F
BILLINGS       PTCLDY    21  18  88 SW16      29.95R WCI   7
LIVINGSTON     PTCLDY    34  18  52 SW23G32   29.95R WCI  22
MILES CITY     CLOUDY    25  21  85 CALM      29.95S
* LAUREL APT   PTCLDY    18  10  71 N/A        N/A
* ROUNDUP APT  PTCLDY    25  18  75 S7         N/A   WCI  17
* ALZADA       N/A       18  16  92 N/A        N/A
* HYSHAM       N/A       26  18  72 W8         N/A   WCI  18
* LAME DEER    N/A       27  21  78 N/A        N/A
* REED POINT   N/A       17  16  96 E3G12      N/A
* ROSCOE HILL  N/A       31   4  31 S4G15      N/A
$$

REGIONAL REPORTS...DAKOTAS
CITY           SKY/WX    TMP DP  RH WIND       PRES   REMARKS
WILLISTON      CLOUDY    21  18  88 SE3       30.00S
DICKINSON      CLOUDY    21  18  88 S10       29.95S WCI  10
BEACH          CLOUDY    23  23 100 S3        29.95S
CROSBY         CLOUDY    19  19 100 S9        30.01S WCI   8
WATFORD CITY   CLOUDY    19  18  96 SE7       29.98S WCI  10
BISMARCK       CLOUDY    16  16 100 SE10      30.10S WCI   4
GRAND FORKS    MOCLDY     3   1  91 S3        30.25F
FARGO          MOCLDY     9   5  84 SE7       30.25F WCI  -2
BUFFALO SD     MOCLDY    25  21  85 S6        29.89R WCI  18
RAPID CITY     FOG       21  19  92 S7        29.99S VSB 3    WCI  12
$$

REGIONAL REPORTS...WYOMING/IDAHO/WASHINGTON
CITY           SKY/WX    TMP DP  RH WIND       PRES   REMARKS
GILLETTE       PTCLDY    19  12  74 SW5       29.95S WCI  12
SHERIDAN       PTCLDY    12   9  88 CALM      29.95R
CODY           PTCLDY    21  16  81 CALM      29.96R
YELLOWSTONE LA MOCLDY    19  16  88 CALM      30.03R
SALMON         CLOUDY    19  14  81 CALM      30.10R
MULLAN PASS    FOG       28  27  96 SW6       29.89S VSB M1/4 WCI  21
SAND POINT     RAIN      32  32 100 CALM      29.98S VSB 3
SPOKANE        FOG       34  34 100 S5        29.96S VSB 1    WCI  29

$$




USA.gov is the U.S. government's official web portal to all federal, state and local government web resources and services.